This demonstration page uses our WeatherBlox Daily Observations layout. Learn more.

Left ArrowRight Arrow

Hourly Observations for June 30, 2021

Temp ( °F °C ) Dew Point ( °F °C ) Humidity (%) Winds ( mph kmh ) Pressure ( in mb ) Visibility ( mi km ) Precip ( " mm )
12:53 am 00:53 Mostly Clear 71 21.7 68 20 90 90 Calm 30.22 1023 10 16 0.00 0.00
1:53 am 01:53 Clear 71 21.7 68 20 90 90 Calm 30.21 1023 10 16 0.00 0.00
2:53 am 02:53 Mostly Clear 70 21.1 68 20 93 93 Calm 30.20 1023 10 16 0.00 0.00
3:53 am 03:53 Clear 71 21.7 68 20 90 90 Calm 30.19 1022 10 16 0.00 0.00
4:53 am 04:53 Clear 69 20.6 67 19.4 93 93 Calm 30.18 1022 10 16 0.00 0.00
5:53 am 05:53 Clear 68 20 66 18.9 93 93 Calm 30.19 1022 10 16 0.00 0.00
6:53 am 06:53 Sunny 68 20 67 19.4 96 96 Calm 30.19 1022 10 16 0.00 0.00
7:53 am 07:53 Sunny 72 22.2 69 20.6 91 91 Calm 30.19 1022 10 16 0.00 0.00
8:53 am 08:53 Sunny 77 25 70 21.1 79 79 N 5 7 30.19 1022 10 16 0.00 0.00
9:53 am 09:53 Sunny 81 27.2 70 21.1 69 69 VRB 3 6 30.19 1022 10 16 0.00 0.00
10:39 am 10:39 Mostly Cloudy 81 27.2 69 20.6 67 67 VRB 5 7 30.18 1022 10 16 0.00 0.00
10:53 am 10:53 Mostly Cloudy 81 27.2 69 20.6 67 67 Calm 30.19 1022 10 16 0.00 0.00
11:53 am 11:53 Partly Cloudy 84 28.9 68 20 59 59 SSE 6 9 30.18 1022 10 16 0.00 0.00
12:53 pm 12:53 Mostly Cloudy 86 30 68 20 55 55 VRB 3 6 30.16 1022 10 16 0.00 0.00
1:53 pm 13:53 Mostly Cloudy 87 30.6 68 20 53 53 S 8 13 30.14 1021 10 16 0.00 0.00
2:53 pm 14:53 Mostly Cloudy 88 31.1 66 18.9 48 48 Calm 30.11 1020 10 16 0.00 0.00
3:53 pm 15:53 Mostly Cloudy 87 30.6 65 18.3 48 48 SSE 7 11 30.08 1019 10 16 0.00 0.00
4:53 pm 16:53 Sunny 89 31.7 64 17.8 43 43 VRB 5 7 30.06 1018 10 16 0.00 0.00
5:53 pm 17:53 Mostly Cloudy 88 31.1 65 18.3 46 46 S 7 11 30.06 1018 10 16 0.00 0.00
6:53 pm 18:53 Mostly Sunny 87 30.6 67 19.4 51 51 SSW 7 11 30.05 1018 10 16 0.00 0.00
7:53 pm 19:53 Partly Cloudy with Thunderstorms 83 28.3 66 18.9 57 57 S 5 7 30.07 1018 10 16 0.00 0.00
8:21 pm 20:21 Partly Cloudy with Nearby Thunderstorms 83 28.3 67 19.4 59 59 S 6 9 30.05 1018 10 16 0.00 0.00
8:53 pm 20:53 Mostly Clear with Nearby Thunderstorms 83 28.3 68 20 61 61 Calm 30.09 1019 10 16 0.00 0.00
9:28 pm 21:28 Cloudy 80 26.7 68 20 67 67 VRB 7 11 30.09 1019 10 16 0.00 0.00
9:38 pm 21:38 Cloudy with Nearby Thunderstorms 80 26.7 68 20 67 67 W 5 7 30.09 1019 10 16 0.00 0.00
9:53 pm 21:53 Cloudy 78 25.6 69 20.6 74 74 W 3 6 30.10 1019 10 16 0.00 0.00
10:53 pm 22:53 Mostly Cloudy with Light Rain 77 25 69 20.6 77 77 SSE 5 7 30.13 1020 10 16 0.00 0.00
11:53 pm 23:53 Clear 75 23.9 68 20 79 79 S 6 9 30.10 1019 10 16 0.00 0.00

Powered by AerisWeather